Explore Kentucky Lake

Lake Conditions
Facebook Twitter Instagram Google YouTube Contact Us About Us
Switch Mobile/Desktop

Previous Lake Barkley Levels

Home | Lake Conditions | Previous Lake Barkley Levels

Lake Barkley Stages Over Last 48 Hours

The following table shows the previous 48 hours for Lake Barkley.

Date/Time Lake River Discharge (cfs)
9/21/2018 6 PM CDT 356.65' 314.65' 33,600
9/21/2018 5 PM CDT 356.65' 314.65' 33,200
9/21/2018 4 PM CDT 356.70' 314.70' 33,600
9/21/2018 3 PM CDT 356.70' 314.70' 33,600
9/21/2018 2 PM CDT 356.75' 314.75' 33,600
9/21/2018 1 PM CDT 356.80' 314.80' 33,200
9/21/2018 12 PM CDT 356.80' 314.80' 33,200
9/21/2018 11 AM CDT 356.85' 314.85' 33,200
9/21/2018 10 AM CDT 356.90' 314.90' 33,600
9/21/2018 9 AM CDT 356.95' 314.95' 33,600
9/21/2018 8 AM CDT 356.95' 315.05' 32,800
9/21/2018 7 AM CDT 357.00' 315.10' 33,200
9/21/2018 6 AM CDT 357.05' 315.15' 33,600
9/21/2018 5 AM CDT 357.05' 315.15' 33,600
9/21/2018 4 AM CDT 357.05' 315.25' 33,600
9/21/2018 3 AM CDT 357.05' 315.25' 33,600
9/21/2018 2 AM CDT 357.05' 315.35' 33,900
9/21/2018 1 AM CDT 357.05' 315.45' 33,900
9/21/2018 12 AM CDT 357.05' 315.55' 33,900
9/20/2018 11 PM CDT 357.05' 315.65' 34,200
9/20/2018 10 PM CDT 357.05' 315.75' 34,200
9/20/2018 9 PM CDT 357.10' 315.80' 34,200
9/20/2018 8 PM CDT 357.10' 315.90' 34,200
9/20/2018 7 PM CDT 357.15' 315.95' 34,200
9/20/2018 6 PM CDT 357.25' 316.15' 34,500
9/20/2018 5 PM CDT 357.25' 316.15' 34,900
9/20/2018 4 PM CDT 357.30' 316.30' 34,500
9/20/2018 3 PM CDT 357.30' 316.40' 34,700
9/20/2018 2 PM CDT 357.30' 316.50' 34,400
9/20/2018 1 PM CDT 357.25' 316.55' 34,800
9/20/2018 12 PM CDT 357.25' 316.75' 35,100
9/20/2018 11 AM CDT 357.25' 316.85' 35,400
9/20/2018 10 AM CDT 357.30' 317.00' 35,400
9/20/2018 9 AM CDT 357.35' 317.15' 35,400
9/20/2018 8 AM CDT 357.40' 317.20' 35,400
9/20/2018 7 AM CDT 357.45' 317.35' 35,700
9/20/2018 6 AM CDT 357.45' 317.45' 34,500
9/20/2018 5 AM CDT 357.50' 317.50' 34,500
9/20/2018 4 AM CDT 357.55' 317.85' 36,300
9/20/2018 3 AM CDT 357.55' 317.95' 36,300
9/20/2018 2 AM CDT 357.55' 318.05' 35,900
9/20/2018 1 AM CDT 357.60' 318.30' 36,600

Water Break
Photo by Melodie Cunningham

This young buck has taken a quick break for a drink. Deer are one of the more common types of wildlife that can be seen in this region.